Location: Star Camp Observatory
(34.2910°N, 116.3827°W)
Time: 04:46:41
(UTC-08:00)

Envisat - Pass Details

Date: 23 November 2019
Orbit: 764 x 766 km, 98.1° (Epoch: 14 December)

Event Time Altitude Azimuth Distance (km) Brightness Sun altitude
Rises 18:24:29 0° 186° (S) 3,214 6.4 -21.9°
Reaches altitude 10° 18:26:55 10° 194° (SSW) 2,292 5.7 -22.4°
Maximum altitude 18:31:36 38° 262° (W) 1,153 4.4 -23.3°
Drops below altitude 10° 18:36:19 10° 330° (NNW) 2,305 5.7 -24.3°
Sets 18:38:47 0° 338° (NNW) 3,234 6.4 -24.8°
